Terminal Aerodrome Forecast
Issued by NWS

Home | Current Version | Previous Version | Graphics & Text | Print | Product List | Glossary On
Versions: 1 2 3 4 5 6 7 8 9 10 11 12 13 14 15 16 17 18 19 20
000
FTUS43 KTOP 261500 AAB
TAFFOE
TAF AMD
KFOE 261513Z 2615/2712 32016G25KT P6SM BKN050
      TEMPO 2618/2622 P6SM BKN030
     FM270000 35007KT P6SM SKC=

USA.gov is the U.S. government's official web portal to all federal, state and local government web resources and services.